Newport, RI

12:35 AM EDT on April 27, 2017 (GMT -0400)
Newport State

Weather History for KUUU - January, 2014

Change the Weather History Date:

Thursday, January 23, 2014

  Actual Average Record
Temperature  
Mean Temperature 13 °F -  
Max Temperature 19 °F 39 °F 55 °F (1973)
Min Temperature 7 °F 24 °F -4 °F (1976)
Degree Days  
Heating Degree Days 52    
Moisture  
Dew Point -3 °F    
Average Humidity 50    
Maximum Humidity 67    
Minimum Humidity 34    
Precipitation  
Precipitation 0.00 in - - ()
Sea Level Pressure  
Sea Level Pressure 30.05 in    
Wind  
Wind Speed 10 mph (WNW)    
Max Wind Speed 14 mph    
Max Gust Speed 23 mph    
Visibility 10 miles    
Events      
Averages and records for this station are not official NWS values.
T = Trace of Precipitation, MM = Missing Value Source: NWS Daily Summary

Daily Weather History Graph

Daily Weather History Graph

Search for Another Location

Airport or City:

Trip Planner

Search our weather history database for the weather conditions in past years. The results will help you decide how hot, cold, wet, or windy it might be!

Date:

Astronomy

Jan. 23, 2014 Rise Set
Actual Time 7:04 AM EST 4:49 PM EST
Civil Twilight 6:34 AM EST 5:19 PM EST
Nautical Twilight 6:00 AM EST 5:53 PM EST
Astronomical Twilight 5:28 AM EST 6:26 PM EST
Moon No Moon Rise 10:32 AM EST (1/23)
Length of Visible Light 10h 45m
Length of Day
9h 45m
Waning Gibbous, 55% of the Moon is Illuminated
Jan 23
Waning Gibbous
Jan 24
Last Quarter
Jan 30
New
Feb 6
First Quarter
Feb 14
Full

Hourly Weather History & Observations

Time (EST) Temp. Windchill Dew Point Humidity Pressure Visibility Wind Dir Wind Speed Gust Speed Precip Events Conditions
12:53 AM 8.1 °F -7.0 °F -7.1 °F 50% 29.90 in 10.0 mi NNW 11.5 mph 20.7 mph N/A   Clear
1:53 AM 8.1 °F -7.0 °F -6.0 °F 53% 29.93 in 10.0 mi NNW 11.5 mph 18.4 mph N/A   Clear
2:53 AM 7.0 °F -7.5 °F -6.0 °F 55% 29.96 in 10.0 mi NNW 10.4 mph 17.3 mph N/A   Clear
3:53 AM 7.0 °F -6.6 °F -6.0 °F 55% 29.96 in 10.0 mi NW 9.2 mph - N/A   Clear
4:53 AM 7.0 °F -7.5 °F -5.1 °F 58% 29.98 in 10.0 mi NW 10.4 mph - N/A   Clear
5:53 AM 7.0 °F -7.5 °F -6.0 °F 55% 30.01 in 10.0 mi WNW 10.4 mph - N/A   Clear
6:53 AM 7.0 °F -6.6 °F -2.9 °F 64% 30.01 in 10.0 mi NW 9.2 mph - N/A   Clear
7:53 AM 7.0 °F -6.6 °F -4.0 °F 61% 30.04 in 10.0 mi NW 9.2 mph - N/A   Clear
8:53 AM 7.0 °F -4.5 °F -2.0 °F 67% 30.04 in 10.0 mi WNW 6.9 mph - N/A   Overcast
9:53 AM 10.0 °F -1.9 °F -2.0 °F 58% 30.06 in 10.0 mi WNW 8.1 mph - N/A   Partly Cloudy
10:53 AM 12.0 °F 2.7 °F -0.0 °F 59% 30.05 in 10.0 mi NW 5.8 mph - N/A   Overcast
11:53 AM 16.0 °F - -0.0 °F 49% 30.03 in 10.0 mi Calm Calm - N/A   Clear
12:53 PM 19.0 °F 12.3 °F -2.9 °F 38% 30.02 in 10.0 mi Variable 4.6 mph - N/A   Clear
1:53 PM 19.9 °F 11.1 °F -2.9 °F 37% 30.02 in 10.0 mi Variable 6.9 mph - N/A   Clear
2:53 PM 19.9 °F 9.3 °F -4.0 °F 35% 30.03 in 10.0 mi West 9.2 mph - N/A   Clear
3:53 PM 19.0 °F 8.2 °F -5.1 °F 34% 30.05 in 10.0 mi West 9.2 mph 21.9 mph N/A   Clear
4:53 PM 17.1 °F 4.3 °F -4.0 °F 39% 30.08 in 10.0 mi West 11.5 mph 18.4 mph N/A   Clear
5:53 PM 17.1 °F 3.6 °F -4.0 °F 39% 30.11 in 10.0 mi West 12.7 mph 21.9 mph N/A   Clear
6:53 PM 16.0 °F 1.7 °F -2.0 °F 45% 30.13 in 10.0 mi WNW 13.8 mph 20.7 mph N/A   Clear
7:53 PM 15.1 °F 0.5 °F -2.0 °F 47% 30.15 in 10.0 mi WNW 13.8 mph 20.7 mph N/A   Clear
8:53 PM 14.0 °F 0.5 °F -2.0 °F 49% 30.17 in 10.0 mi WNW 11.5 mph 23.0 mph N/A   Clear
9:53 PM 12.9 °F -0.9 °F -2.9 °F 49% 30.19 in 10.0 mi WNW 11.5 mph 21.9 mph N/A   Clear
10:53 PM 12.0 °F 1.5 °F -2.9 °F 51% 30.19 in 10.0 mi Variable 6.9 mph 18.4 mph N/A   Clear
11:53 PM 12.0 °F -1.3 °F -0.9 °F 56% 30.19 in 10.0 mi West 10.4 mph 18.4 mph N/A   Clear